Location: Melbourne
(37.8170°S, 144.9670°E)
Time: 00:34:33
(UTC+11:00)

ADEOS Rocket - Visible Passes

Search period start: 10 December 2016 00:00
Search period end: 20 December 2016 00:00
Orbit: 858 x 1307 km, 98.7° (Epoch: 08 December)

Date Brightness Start Highest point End Pass type
(mag) Time Alt. Az. Time Alt. Az. Time Alt. Az.
10 Dec 5.6 02:24:54 10° ENE 02:30:35 23° ESE 02:36:21 10° SSE visible
10 Dec 3.6 04:07:35 10° N 04:15:11 76° WNW 04:23:04 10° SSW visible
11 Dec 6.3 01:42:10 10° SE 01:42:46 10° SE 01:43:22 10° SE visible
11 Dec 4.3 03:19:05 10° NE 03:26:29 54° ESE 03:34:03 10° S visible
11 Dec 4.4 05:05:33 10° NNW 05:12:06 31° W 05:18:53 10° SW visible
12 Dec 5.4 02:32:05 10° ENE 02:38:11 26° ESE 02:44:20 10° S visible
12 Dec 3.6 04:15:20 10° N 04:22:56 67° WNW 04:30:47 10° SSW visible
13 Dec 6.1 01:47:39 10° ESE 01:50:17 12° SE 01:52:54 10° SSE visible
13 Dec 4.1 03:26:38 10° NNE 03:34:11 61° ESE 03:41:52 10° S visible
13 Dec 4.5 05:13:42 10° NNW 05:19:57 27° W 05:26:20 10° SW visible
14 Dec 5.2 02:39:21 10° ENE 02:45:48 30° ESE 02:52:16 10° S visible
14 Dec 3.7 04:23:09 10° N 04:30:43 59° W 04:38:26 10° SSW visible
15 Dec 6.0 01:54:12 10° E 01:57:48 14° SE 02:01:23 10° SSE visible
15 Dec 3.9 03:34:12 10° NNE 03:41:53 70° ESE 03:49:38 10° S visible
15 Dec 4.7 05:21:56 10° NW 05:27:47 23° W 05:33:44 10° SW visible
16 Dec 5.0 02:46:40 10° NE 02:53:26 34° ESE 03:00:11 10° S visible
16 Dec 3.8 04:31:02 10° N 04:38:30 51° W 04:46:04 10° SSW visible
17 Dec 5.9 02:01:00 10° E 02:05:21 16° ESE 02:09:39 10° SSE visible
17 Dec 3.7 03:41:51 10° NNE 03:49:37 79° ESE 03:57:23 10° S visible
18 Dec 4.8 02:54:03 10° NE 03:01:05 39° ESE 03:08:02 10° S visible
18 Dec 4.0 04:38:57 10° NNW 04:46:18 45° W 04:53:40 10° SSW visible
19 Dec 5.8 02:07:59 10° E 02:12:55 19° ESE 02:17:46 10° SSE visible
19 Dec 3.6 03:49:31 10° NNE 03:57:20 89° ESE 04:05:06 10° SSW visible
